When you browse on this site, cookies collect data to enhance your experience and personalize the content and advertising you see.
Visit our Privacy Policy to learn more. By continuing to use the site, you agree to this use of cookies and data.
  • In Spain
  • List of Countries
  • For 7 days
  • Water Temperature
  • Weather Map
  • Weather Widgets
  • user-avatar
    Login

    Hourly Weather Rio de Janeiro

    Today, 25 February, Tuesday

    Time Temperature Precipitation Wind Pressure Humidity
    00:00 +24°C° 0.1 mm 2 mps 759 mmHg 87%
    01:00 +24°C° 0.2 mm 2 mps 758 mmHg 87%
    02:00 +24°C° 0.2 mm 1 mps 758 mmHg 87%
    03:00 +24°C° 0 mm 1 mps 757 mmHg 85%
    04:00 +24°C° 0.6 mm 1 mps 757 mmHg 86%
    05:00 +24°C° 0.6 mm 1 mps 757 mmHg 86%
    06:00 +24°C° 0.6 mm 2 mps 757 mmHg 86%
    07:00 +26°C° 0.5 mm 2 mps 758 mmHg 79%
    08:00 +28°C° 0.5 mm 2 mps 758 mmHg 73%
    09:00 +29°C° 0.5 mm 2 mps 758 mmHg 67%
    10:00 +31°C° 0 mm 2 mps 758 mmHg 61%
    11:00 +34°C° 0 mm 2 mps 757 mmHg 55%
    12:00 +35°C° 0 mm 1 mps 757 mmHg 49%
    13:00 +36°C° 0 mm 2 mps 756 mmHg 50%
    14:00 +36°C° 0 mm 2 mps 755 mmHg 51%
    15:00 +36°C° 0 mm 3 mps 755 mmHg 52%
    16:00 +34°C° 0.1 mm 3 mps 755 mmHg 59%
    17:00 +33°C° 0.1 mm 3 mps 754 mmHg 66%
    18:00 +30°C° 0.1 mm 3 mps 754 mmHg 72%
    19:00 +30°C° 0 mm 2 mps 755 mmHg 75%
    20:00 +29°C° 0 mm 2 mps 755 mmHg 77%
    21:00 +29°C° 0 mm 2 mps 756 mmHg 80%
    22:00 +28°C° 0 mm 2 mps 756 mmHg 81%
    23:00 +28°C° 0 mm 1 mps 755 mmHg 82%

    Tomorrow, 26 February, Wednesday

    Time Temperature Precipitation Wind Pressure Humidity
    00:00 +28°C° 0 mm 1 mps 755 mmHg 83%
    01:00 +28°C° 0 mm 1 mps 754 mmHg 83%
    02:00 +28°C° 0 mm 1 mps 754 mmHg 83%
    03:00 +27°C° 0 mm 1 mps 754 mmHg 83%
    04:00 +27°C° 0 mm 1 mps 753 mmHg 82%
    05:00 +27°C° 0 mm 1 mps 753 mmHg 82%
    06:00 +27°C° 0 mm 2 mps 753 mmHg 81%
    07:00 +29°C° 0 mm 2 mps 753 mmHg 74%
    08:00 +31°C° 0 mm 2 mps 753 mmHg 68%
    09:00 +32°C° 0 mm 2 mps 753 mmHg 61%
    10:00 +35°C° 0 mm 2 mps 753 mmHg 56%
    11:00 +36°C° 0 mm 2 mps 752 mmHg 52%
    12:00 +37°C° 0 mm 2 mps 752 mmHg 48%
    13:00 +38°C° 0.1 mm 2 mps 751 mmHg 47%
    14:00 +38°C° 0.1 mm 2 mps 751 mmHg 46%
    15:00 +39°C° 0.1 mm 2 mps 750 mmHg 45%
    16:00 +37°C° 1.1 mm 2 mps 750 mmHg 52%
    17:00 +35°C° 1.1 mm 2 mps 750 mmHg 59%
    18:00 +32°C° 1.1 mm 2 mps 750 mmHg 66%
    19:00 +31°C° 1.6 mm 2 mps 751 mmHg 70%
    20:00 +30°C° 1.6 mm 2 mps 752 mmHg 75%
    21:00 +29°C° 1.6 mm 2 mps 752 mmHg 79%
    22:00 +28°C° 2.3 mm 3 mps 753 mmHg 81%
    23:00 +27°C° 2.3 mm 5 mps 753 mmHg 84%

    Day after tomorrow, 27 February, Thursday

    Time Temperature Precipitation Wind Pressure Humidity
    00:00 +27°C° 2.3 mm 6 mps 753 mmHg 86%
    01:00 +26°C° 0.8 mm 5 mps 753 mmHg 87%
    02:00 +26°C° 0.8 mm 4 mps 753 mmHg 87%
    03:00 +26°C° 0.8 mm 3 mps 753 mmHg 87%
    04:00 +26°C° 0.8 mm 3 mps 753 mmHg 88%
    05:00 +26°C° 0.8 mm 3 mps 754 mmHg 88%
    06:00 +26°C° 0.8 mm 3 mps 754 mmHg 88%
    07:00 +26°C° 0.6 mm 3 mps 755 mmHg 86%
    08:00 +26°C° 0.6 mm 3 mps 755 mmHg 84%
    09:00 +26°C° 0.6 mm 3 mps 756 mmHg 82%
    10:00 +25°C° 0.8 mm 3 mps 756 mmHg 83%
    11:00 +25°C° 0.8 mm 3 mps 756 mmHg 84%
    12:00 +25°C° 0.8 mm 3 mps 756 mmHg 85%
    13:00 +25°C° 1.2 mm 3 mps 756 mmHg 86%
    14:00 +25°C° 1.2 mm 3 mps 756 mmHg 86%
    15:00 +25°C° 1.2 mm 3 mps 756 mmHg 87%
    16:00 +25°C° 0.4 mm 3 mps 756 mmHg 85%
    17:00 +25°C° 0.4 mm 3 mps 756 mmHg 83%
    18:00 +25°C° 0.4 mm 2 mps 757 mmHg 82%
    19:00 +25°C° 0.2 mm 2 mps 757 mmHg 81%
    20:00 +25°C° 0.2 mm 2 mps 758 mmHg 81%
    21:00 +25°C° 0.2 mm 2 mps 759 mmHg 81%
    22:00 +24°C° 0.1 mm 2 mps 759 mmHg 80%
    23:00 +24°C° 0.1 mm 1 mps 759 mmHg 79%

    28 February, Friday

    Time Temperature Precipitation Wind Pressure Humidity
    00:00 +24°C° 0.1 mm 1 mps 758 mmHg 78%
    01:00 +24°C° 0 mm 1 mps 758 mmHg 78%
    02:00 +24°C° 0 mm 1 mps 758 mmHg 77%
    03:00 +22°C° 0 mm 0 mps 758 mmHg 77%
    04:00 +22°C° 0 mm 0 mps 758 mmHg 78%
    05:00 +22°C° 0 mm 0 mps 758 mmHg 78%
    06:00 +22°C° 0 mm 0 mps 758 mmHg 79%
    07:00 +23°C° 0 mm 0 mps 759 mmHg 76%
    08:00 +23°C° 0 mm 0 mps 759 mmHg 74%
    09:00 +24°C° 0 mm 0 mps 759 mmHg 71%
    10:00 +24°C° 0 mm 0 mps 760 mmHg 69%
    11:00 +27°C° 0 mm 1 mps 760 mmHg 67%
    12:00 +27°C° 0 mm 1 mps 760 mmHg 65%
    13:00 +27°C° 0 mm 1 mps 759 mmHg 67%
    14:00 +26°C° 0 mm 2 mps 759 mmHg 70%
    15:00 +26°C° 0 mm 2 mps 759 mmHg 72%
    16:00 +25°C° 0.1 mm 2 mps 759 mmHg 74%
    17:00 +25°C° 0.1 mm 2 mps 759 mmHg 77%
    18:00 +24°C° 0.1 mm 2 mps 759 mmHg 80%
    19:00 +24°C° 0.1 mm 2 mps 760 mmHg 80%
    20:00 +24°C° 0.1 mm 2 mps 760 mmHg 81%
    21:00 +24°C° 0.1 mm 2 mps 760 mmHg 82%
    22:00 +24°C° 0 mm 2 mps 760 mmHg 82%
    23:00 +24°C° 0 mm 2 mps 760 mmHg 82%

    29 February, Saturday

    Time Temperature Precipitation Wind Pressure Humidity
    00:00 +24°C° 0 mm 2 mps 760 mmHg 82%
    01:00 +24°C° 0 mm 1 mps 759 mmHg 82%
    02:00 +24°C° 0 mm 1 mps 759 mmHg 83%
    03:00 +24°C° 0 mm 1 mps 759 mmHg 84%
    04:00 +24°C° 0 mm 1 mps 759 mmHg 84%
    05:00 +24°C° 0 mm 1 mps 759 mmHg 83%
    06:00 +24°C° 0 mm 1 mps 759 mmHg 83%
    07:00 +25°C° 0 mm 1 mps 759 mmHg 77%
    08:00 +25°C° 0 mm 0 mps 760 mmHg 71%
    09:00 +26°C° 0 mm 0 mps 760 mmHg 65%
    10:00 +29°C° 0 mm 1 mps 760 mmHg 63%
    11:00 +30°C° 0 mm 1 mps 760 mmHg 61%
    12:00 +30°C° 0 mm 2 mps 760 mmHg 59%
    13:00 +29°C° 0 mm 2 mps 759 mmHg 64%
    14:00 +28°C° 0 mm 2 mps 758 mmHg 69%
    15:00 +27°C° 0 mm 2 mps 758 mmHg 75%
    16:00 +27°C° 0.1 mm 2 mps 758 mmHg 77%
    17:00 +26°C° 0.1 mm 2 mps 758 mmHg 79%
    18:00 +26°C° 0.1 mm 2 mps 758 mmHg 81%
    19:00 +26°C° 0.2 mm 2 mps 759 mmHg 81%
    20:00 +26°C° 0.2 mm 2 mps 759 mmHg 82%
    21:00 +25°C° 0.2 mm 1 mps 760 mmHg 83%
    22:00 +25°C° 0.8 mm 1 mps 759 mmHg 85%
    23:00 +25°C° 0.8 mm 2 mps 759 mmHg 87%

    1 March, Sunday

    Time Temperature Precipitation Wind Pressure Humidity
    00:00 +25°C° 0.8 mm 2 mps 759 mmHg 89%
    01:00 +25°C° 0.8 mm 2 mps 759 mmHg 89%
    02:00 +25°C° 0.8 mm 2 mps 758 mmHg 90%
    03:00 +25°C° 0.8 mm 2 mps 758 mmHg 90%
    04:00 +25°C° 0.7 mm 2 mps 758 mmHg 90%
    05:00 +25°C° 0.7 mm 2 mps 758 mmHg 91%
    06:00 +25°C° 0.7 mm 2 mps 758 mmHg 91%
    07:00 +25°C° 1.2 mm 2 mps 759 mmHg 90%
    08:00 +25°C° 1.2 mm 2 mps 759 mmHg 89%
    09:00 +25°C° 1.2 mm 2 mps 759 mmHg 89%
    10:00 +25°C° 1.1 mm 2 mps 759 mmHg 89%
    11:00 +25°C° 1.1 mm 2 mps 759 mmHg 89%
    12:00 +25°C° 1.1 mm 2 mps 759 mmHg 89%
    13:00 +25°C° 0.8 mm 2 mps 759 mmHg 88%
    14:00 +25°C° 0.8 mm 2 mps 759 mmHg 88%
    15:00 +25°C° 0.8 mm 2 mps 759 mmHg 88%
    16:00 +25°C° 0.3 mm 2 mps 759 mmHg 87%
    17:00 +24°C° 0.3 mm 2 mps 759 mmHg 86%
    18:00 +24°C° 0.3 mm 1 mps 759 mmHg 84%
    19:00 +24°C° 0.2 mm 2 mps 760 mmHg 84%
    20:00 +24°C° 0.2 mm 2 mps 760 mmHg 84%
    21:00 +24°C° 0.2 mm 2 mps 761 mmHg 83%
    22:00 +24°C° 0.2 mm 2 mps 760 mmHg 83%
    23:00 +24°C° 0.2 mm 3 mps 760 mmHg 82%
    Show more